Sparta, WI

2:51 AM CST on February 24, 2017 (GMT -0600)
Sparta-Fort McCoy

Weather History for KCMY - November, 2014

Change the Weather History Date:

Friday, November 21, 2014

  Actual Average Record
Temperature  
Mean Temperature 12 °F -  
Max Temperature 32 °F 40 °F 65 °F (1990)
Min Temperature -7 °F 22 °F -7 °F (2014)
Degree Days  
Heating Degree Days 52    
Moisture  
Dew Point 2 °F    
Average Humidity 61    
Maximum Humidity 85    
Minimum Humidity 33    
Precipitation  
Precipitation 0.00 in - - ()
Sea Level Pressure  
Sea Level Pressure 30.22 in    
Wind  
Wind Speed 3 mph (SSW)    
Max Wind Speed 14 mph    
Max Gust Speed 18 mph    
Visibility 10 miles    
Events      
Averages and records for this station are not official NWS values.
T = Trace of Precipitation, MM = Missing Value Source: NWS Daily Summary

Daily Weather History Graph

Daily Weather History Graph

Search for Another Location

Airport or City:

Trip Planner

Search our weather history database for the weather conditions in past years. The results will help you decide how hot, cold, wet, or windy it might be!

Date:

Astronomy

Nov. 21, 2014 Rise Set
Actual Time 7:05 AM CST 4:31 PM CST
Civil Twilight 6:33 AM CST 5:03 PM CST
Nautical Twilight 5:58 AM CST 5:38 PM CST
Astronomical Twilight 5:24 AM CST 6:13 PM CST
Moon 5:58 AM CST (11/21) 4:18 PM CST (11/21)
Length of Visible Light 10h 29m
Length of Day
9h 26m
Waning Crescent, 1% of the Moon is Illuminated
Nov 21
Waning Crescent
Nov 22
New
Nov 29
First Quarter
Dec 6
Full
Dec 14
Last Quarter

Hourly Weather History & Observations

Time (CST) Temp. Windchill Dew Point Humidity Pressure Visibility Wind Dir Wind Speed Gust Speed Precip Events Conditions
12:15 AM -5.1 °F - -8.7 °F 84% 30.31 in 10.0 mi Calm Calm - N/A   Clear
12:35 AM -5.1 °F - -8.7 °F 84% 30.31 in 10.0 mi Calm Calm - N/A   Clear
12:55 AM -5.1 °F - -8.5 °F 85% 30.32 in 10.0 mi Calm Calm - N/A   Clear
1:15 AM -5.6 °F - -9.2 °F 84% 30.32 in 10.0 mi Calm Calm - N/A   Clear
1:35 AM -5.8 °F - -9.4 °F 84% 30.33 in 10.0 mi Calm Calm - N/A   Clear
1:55 AM -5.8 °F - -9.8 °F 83% 30.33 in 10.0 mi Calm Calm - N/A   Clear
2:15 AM -6.7 °F - -10.8 °F 82% 30.32 in 10.0 mi Calm Calm - N/A   Clear
2:35 AM -7.4 °F - -11.6 °F 82% 30.33 in 10.0 mi Calm Calm - N/A   Clear
2:55 AM -6.5 °F - -10.7 °F 82% 30.33 in 10.0 mi Calm Calm - N/A   Clear
3:15 AM -7.6 °F - -11.4 °F 84% 30.34 in 10.0 mi Calm Calm - N/A   Clear
3:35 AM -7.8 °F - -11.9 °F 82% 30.33 in 10.0 mi Calm Calm - N/A   Clear
3:55 AM -7.2 °F - -11.4 °F 82% 30.33 in 10.0 mi Calm Calm - N/A   Clear
4:15 AM -7.1 °F - -11.7 °F 80% 30.33 in 10.0 mi Calm Calm - N/A   Clear
4:35 AM -6.9 °F - -11.2 °F 81% 30.33 in 10.0 mi Calm Calm - N/A   Clear
4:55 AM -7.6 °F - -11.7 °F 82% 30.33 in 10.0 mi Calm Calm - N/A   Clear
5:15 AM -7.1 °F - -11.4 °F 81% 30.34 in 10.0 mi Calm Calm - N/A   Clear
5:35 AM -7.6 °F - -12.1 °F 81% 30.34 in 10.0 mi Calm Calm - N/A   Clear
5:55 AM -7.8 °F - -12.1 °F 81% 30.34 in 10.0 mi Calm Calm - N/A   Clear
6:15 AM -7.1 °F - -11.2 °F 82% 30.34 in 10.0 mi Calm Calm - N/A   Clear
6:35 AM -6.7 °F - -10.8 °F 82% 30.34 in 10.0 mi Calm Calm - N/A   Clear
6:55 AM -6.7 °F - -10.7 °F 83% 30.34 in 10.0 mi Calm Calm - N/A   Clear
7:15 AM -6.9 °F - -11.2 °F 81% 30.34 in 10.0 mi Calm Calm - N/A   Clear
7:35 AM -5.8 °F - -10.1 °F 82% 30.34 in 10.0 mi Calm Calm - N/A   Clear
7:55 AM -4.0 °F - -8.5 °F 81% 30.34 in 10.0 mi Calm Calm - N/A   Clear
8:15 AM -2.0 °F - -6.3 °F 82% 30.34 in 10.0 mi Calm Calm - N/A   Clear
8:35 AM 2.5 °F - -1.8 °F 82% 30.33 in 10.0 mi Calm Calm - N/A   Clear
8:55 AM 5.0 °F - -0.2 °F 79% 30.32 in 10.0 mi Calm Calm - N/A   Clear
9:15 AM 13.6 °F 3.5 °F 6.6 °F 74% 30.32 in 10.0 mi South 6.9 mph - N/A   Clear
9:35 AM 17.1 °F 5.0 °F 5.2 °F 60% 30.32 in 10.0 mi South 10.4 mph - N/A   Clear
9:55 AM 18.3 °F 5.9 °F 4.3 °F 54% 30.32 in 10.0 mi South 11.5 mph - N/A   Clear
10:55 AM 21.7 °F 10.8 °F 3.4 °F 45% 30.31 in 10.0 mi South 10.4 mph - N/A   Clear
11:15 AM 23.4 °F 15.2 °F 3.6 °F 43% 30.30 in 10.0 mi South 6.9 mph - N/A   Clear
11:35 AM 24.3 °F 13.9 °F 2.1 °F 39% 30.29 in 10.0 mi South 10.4 mph - N/A   Clear
11:55 AM 24.8 °F 16.9 °F 2.5 °F 38% 30.28 in 10.0 mi South 6.9 mph - N/A   Clear
12:15 PM 25.5 °F 16.2 °F 3.0 °F 38% 30.27 in 10.0 mi South 9.2 mph - N/A   Clear
12:35 PM 27.0 °F 18.0 °F 5.2 °F 40% 30.25 in 10.0 mi South 9.2 mph - N/A   Clear
12:55 PM 29.1 °F 20.6 °F 5.7 °F 37% 30.24 in 10.0 mi South 9.2 mph 17.3 mph N/A   Clear
1:15 PM 29.1 °F 20.6 °F 4.5 °F 35% 30.23 in 10.0 mi South 9.2 mph - N/A   Clear
1:35 PM 29.3 °F 19.6 °F 3.6 °F 33% 30.22 in 10.0 mi SSW 11.5 mph 18.4 mph N/A   Clear
1:55 PM 29.1 °F 20.6 °F 4.6 °F 35% 30.21 in 10.0 mi South 9.2 mph 16.1 mph N/A   Clear
2:15 PM 29.3 °F 21.5 °F 5.7 °F 37% 30.21 in 10.0 mi South 8.1 mph - N/A   Clear
2:35 PM 29.3 °F 19.1 °F 5.0 °F 36% 30.19 in 10.0 mi South 12.7 mph - N/A   Clear
2:55 PM 30.6 °F 22.4 °F 5.9 °F 35% 30.18 in 10.0 mi South 9.2 mph - N/A   Clear
3:15 PM 31.3 °F 24.7 °F 7.9 °F 37% 30.18 in 10.0 mi South 6.9 mph - N/A   Clear
3:35 PM 30.2 °F 24.3 °F 5.2 °F 35% 30.18 in 10.0 mi South 5.8 mph - N/A   Clear
3:55 PM 29.1 °F 22.1 °F 6.4 °F 38% 30.17 in 10.0 mi South 6.9 mph - N/A   Clear
4:15 PM 28.0 °F 20.8 °F 7.5 °F 42% 30.16 in 10.0 mi South 6.9 mph - N/A   Clear
4:35 PM 28.4 °F 19.7 °F 8.4 °F 43% 30.16 in 10.0 mi South 9.2 mph - N/A   Clear
4:55 PM 28.2 °F 19.5 °F 9.1 °F 45% 30.15 in 10.0 mi South 9.2 mph - N/A   Clear
5:15 PM 28.4 °F 19.7 °F 9.9 °F 46% 30.15 in 10.0 mi South 9.2 mph - N/A   Clear
5:35 PM 28.4 °F 19.1 °F 9.5 °F 45% 30.14 in 10.0 mi South 10.4 mph - N/A   Clear
5:55 PM 28.4 °F 20.4 °F 10.2 °F 47% 30.13 in 10.0 mi South 8.1 mph - N/A   Clear
6:15 PM 28.4 °F 20.4 °F 10.6 °F 47% 30.13 in 10.0 mi SSW 8.1 mph 16.1 mph N/A   Clear
6:35 PM 28.4 °F 20.4 °F 10.4 °F 47% 30.12 in 10.0 mi SSW 8.1 mph - N/A   Clear
6:55 PM 28.4 °F 20.4 °F 10.9 °F 48% 30.11 in 10.0 mi South 8.1 mph - N/A   Clear
7:15 PM 28.9 °F 21.9 °F 11.3 °F 48% 30.10 in 10.0 mi SSW 6.9 mph - N/A   Scattered Clouds
7:35 PM 29.7 °F 23.7 °F 12.6 °F 49% 30.09 in 10.0 mi SSW 5.8 mph - N/A   Overcast
7:55 PM 30.0 °F 22.4 °F 13.6 °F 51% 30.08 in 10.0 mi SSW 8.1 mph - N/A   Overcast
8:15 PM 30.2 °F 21.9 °F 13.1 °F 49% 30.07 in 10.0 mi SSW 9.2 mph - N/A   Overcast
8:35 PM 30.6 °F 23.1 °F 14.0 °F 50% 30.06 in 10.0 mi SSW 8.1 mph - N/A   Overcast
8:55 PM 30.9 °F 23.5 °F 14.4 °F 50% 30.06 in 10.0 mi SSW 8.1 mph 16.1 mph N/A   Overcast
9:15 PM 31.1 °F 22.4 °F 15.6 °F 53% 30.05 in 10.0 mi SSW 10.4 mph 18.4 mph N/A   Overcast
9:35 PM 31.6 °F 24.4 °F 16.5 °F 54% 30.04 in 10.0 mi SSW 8.1 mph 17.3 mph N/A   Overcast
9:55 PM 31.8 °F 22.8 °F 17.4 °F 55% 30.04 in 10.0 mi SSW 11.5 mph - N/A   Overcast
10:15 PM 32.0 °F 24.8 °F 18.0 °F 56% 30.03 in 10.0 mi South 8.1 mph 16.1 mph N/A   Overcast
10:35 PM 32.0 °F 24.2 °F 18.3 °F 57% 30.03 in 10.0 mi SSW 9.2 mph 17.3 mph N/A   Overcast
10:55 PM 32.0 °F 22.1 °F 19.6 °F 60% 30.01 in 10.0 mi South 13.8 mph - N/A   Overcast
11:15 PM 32.2 °F 25.0 °F 20.7 °F 63% 30.01 in 10.0 mi SSW 8.1 mph - N/A   Overcast
11:35 PM 32.4 °F 25.3 °F 21.7 °F 65% 30.00 in 10.0 mi SSW 8.1 mph - N/A   Overcast
11:55 PM 32.7 °F 25.7 °F 22.6 °F 66% 30.00 in 10.0 mi SSW 8.1 mph 16.1 mph N/A   Overcast